SCP
0 0 0 0 0 0 0 0 0 0 0 0 0 0 0 0 0 0 0 0 0 0 1 1 1 1 0 0 0 0 0 0 0 0 0 0 0 0 0 0 0 0 0 0
0 0 0 0 0 0 0 0 0 0 0 0 0 0 0 0 0 0 0 0 0 0 1 1 1 1 0 0 0 0 0 0 0 0 0 0 0 0 0 0 0 0 0 0
0 0 0 0 0 0 0 0 0 0 0 0 0 0 0 0 0 0 0 0 0 0 0 1 1 1 1 0 0 0 0 0 0 0 0 0 0 0 0 0 0 0 0 0
0 0 0 0 0 0 0 0 0 0 0 0 0 0 0 0 0 0 0 0 0 0 0 0 1 1 1 1 1 0 0 0 0 0 0 0 0 0 0 0 0 0 0 0
0 0 0 0 0 0 0 0 0 0 0 0 0 0 0 0 0 0 0 0 0 0 0 0 0 0 0 1 1 0 0 0 0 0 0 0 0 0 0 0 0 0 0 0
0 0 0 0 0 0 0 0 0 0 0 0 0 0 0 0 0 0 0 0 0 0 0 0 0 0 0 1 1 0 0 0 0 0 0 0 0 0 0 0 0 0 0 0
0 0 0 0 0 0 0 0 0 0 0 0 0 0 0 0 0 0 0 0 0 0 0 0 0 0 0 0 0 0 0 0 0 0 0 0 0 0 0 0 0 0 0 0
0 0 0 0 0 0 0 0 0 0 0 0 0 0 0 0 0 0 0 0 0 0 0 0 0 0 0 0 0 0 0 0 0 0 0 0 0 0 0 0 0 0 0 0
0 0 0 0 0 0 0 0 0 0 0 0 0 0 0 0 0 0 0 0 0 0 0 0 0 0 0 0 0 0 0 0 0 0 0 0 0 0 0 0 0 0 0 0
0 0 0 0 0 0 0 0 0 0 0 0 0 0 0 0 0 0 0 0 0 0 0 0 0 0 0 0 0 0 0 0 0 0 0 0 0 0 0 0 0 0 0 0
0 0 0 0 0 0 0 0 0 0 0 0 0 0 0 0 0 0 0 0 0 0 0 0 0 1 0 0 0 0 0 0 0 0 0 0 0 0 0 0 0 0 0 0
0 0 0 0 0 0 0 0 0 0 0 0 0 0 0 0 0 0 0 0 0 0 0 0 1 0 0 0 0 0 0 0 0 0 0 0 0 0 0 0 0 0 0 0
0 0 0 0 0 0 0 0 0 0 0 0 0 0 0 0 0 0 0 0 0 0 0 1 0 0 0 0 0 0 0 0 0 0 0 0 0 0 0 0 0 0 0 0
0 0 0 0 0 0 0 0 0 0 0 0 0 0 0 0 0 0 0 0 0 0 0 0 0 0 0 0 0 0 0 0 0 0 0 0 0 0 0 0 0 0 0 0
0 0 0 0 0 0 0 0 0 0 0 0 0 0 0 0 0 0 0 0 0 0 0 0 0 0 0 0 0 0 0 0 0 0 0 0 0 0 0 0 0 0 0 0
0 0 0 0 0 0 0 0 0 0 0 0 0 0 0 0 0 0 0 0 0 0 0 0 0 0 0 0 0 0 0 0 0 0 0 0 0 0 0 0 0 0 0 0
0 0 0 0 0 0 0 0 0 0 0 0 0 0 0 0 0 0 0 0 0 0 0 0 0 0 0 0 0 0 0 0 0 0 0 0 0 0 0 0 0 0 0 0
0 0 0 0 0 0 0 0 0 0 0 0 0 0 0 0 0 0 0 0 0 0 0 0 0 0 0 0 0 0 0 0 0 0 0 0 0 0 0 0 0 0 0 0
0 0 0 0 0 0 0 0 0 0 0 0 0 0 0 0 0 0 0 0 0 0 0 0 0 0 0 0 0 0 0 0 0 0 0 0 0 0 0 0 0 0 0 0
0 0 0 0 0 0 0 0 0 0 0 0 0 0 0 0 0 0 0 0 0 0 0 0 0 0 0 0 0 0 0 0 0 0 0 0 0 0 0 0 0 0 0 0
0 0 0 0 0 0 0 0 0 0 0 0 0 0 0 0 0 0 0 0 0 0 0 0 0 0 0 0 0 0 0 0 0 0 0 0 0 0 0 0 0 0 0 0
0 0 0 0 0 0 0 0 0 0 0 0 0 0 0 0 0 0 0 0 0 0 0 0 0 0 0 0 0 0 0 0 0 0 0 0 0 0 0 0 0 0 0 0
0 0 0 0 0 0 0 0 0 0 0 0 0 0 0 0 0 0 0 0 0 0 0 0 0 0 0 0 0 0 0 0 0 0 0 0 0 0 0 0 0 0 0 0
0 0 0 0 0 0 0 0 0 0 0 0 0 0 0 0 0 0 0 0 0 0 0 0 0 0 0 0 0 0 0 0 0 0 0 0 0 0 0 0 0 0 0 0
0 0 0 0 0 0 0 0 0 0 0 0 0 0 0 0 0 0 0 0 0 0 0 0 0 0 0 0 0 0 0 0 0 0 0 0 0 0 0 0 0 0 0 0
0 0 0 0 0 0 0 0 0 0 0 0 0 0 0 0 0 0 0 0 0 0 0 0 0 0 0 0 0 0 0 0 0 0 0 0 0 0 0 0 0 0 0 0
Wind_Speed
4 3 4 5 6 6 6 6 6 3 1 3 8 11 11 7 7 8 7 7 6 6 5 5 5 6 5 6 6 7 6 6 5 4 3 3 2 2 1 1 2 2 2 2
3 6 5 4 4 5 6 7 7 3 1 3 7 12 12 10 10 9 8 7 6 5 4 5 5 5 5 6 6 6 7 6 6 4 3 2 3 2 2 2 2 2 2 2
5 1 2 5 4 5 6 6 6 5 4 5 6 10 8 6 7 5 5 5 3 3 3 4 4 4 5 5 6 6 6 6 5 5 3 3 2 2 2 2 2 2 2 2
4 2 2 3 4 4 5 2 4 4 4 4 2 7 6 4 3 4 4 4 3 2 2 3 3 4 4 4 5 6 6 6 6 5 5 5 4 3 3 3 3 2 3 2
3 2 2 3 3 3 2 3 3 4 4 5 4 5 7 2 2 2 2 2 2 2 2 3 3 3 3 3 3 4 5 5 5 5 6 5 4 2 2 3 3 3 3 3
2 0 1 1 1 2 0 1 3 3 2 6 6 6 6 1 2 0 1 1 1 2 2 3 3 3 2 3 3 3 4 4 5 5 5 5 5 4 4 4 4 3 2 3
3 3 1 0 1 1 2 1 0 1 3 6 3 5 6 1 2 2 2 2 2 2 2 3 3 3 3 3 3 3 4 4 5 5 5 5 5 5 5 5 4 4 3 3
4 4 5 3 3 3 4 3 3 3 3 4 2 6 4 1 3 3 3 3 3 2 2 2 3 3 3 3 3 3 4 4 4 5 5 4 4 3 3 4 4 4 3 3
4 3 2 2 1 2 3 4 1 1 2 4 6 4 2 1 1 2 2 2 1 1 1 2 2 2 2 2 3 3 3 3 3 4 4 4 4 4 3 3 3 3 3 3
2 2 2 1 1 2 2 1 2 3 3 5 6 5 3 2 1 0 1 1 1 1 1 1 1 2 2 2 2 2 2 3 3 3 4 4 4 4 3 3 3 3 4 4
1 2 2 2 5 5 4 3 4 3 3 3 4 4 1 3 2 2 1 1 1 1 1 1 1 2 2 2 2 2 1 1 2 2 3 3 3 3 3 3 3 3 3 4
2 1 2 3 1 2 2 4 5 4 5 4 3 6 1 2 3 3 2 1 1 1 1 1 2 2 2 1 1 1 1 1 1 1 2 2 3 3 3 3 3 3 4 4
3 3 1 1 1 1 3 4 4 2 1 4 5 7 1 2 2 2 2 2 2 1 1 1 2 1 1 1 1 1 1 1 1 1 2 2 2 3 4 4 3 3 3 4
2 3 5 6 2 3 4 5 6 5 5 6 9 8 4 2 2 2 1 1 1 1 1 1 0 1 1 1 1 1 1 1 1 1 2 2 3 3 3 3 3 3 3 4
2 3 4 5 4 2 5 7 8 10 10 9 8 8 7 4 3 2 1 1 1 1 1 0 1 1 1 1 1 1 1 1 1 2 2 2 2 2 2 3 3 3 3 3
2 3 1 4 3 3 6 9 11 12 11 13 11 13 5 4 2 2 2 1 1 1 1 1 1 1 2 2 2 2 2 2 2 2 2 2 2 2 2 3 3 3 3 2
4 4 3 3 0 2 9 12 12 8 8 7 12 11 4 5 4 3 3 2 2 2 2 2 2 3 3 3 3 3 2 1 2 2 2 2 2 2 2 3 3 3 3 2
5 4 3 2 1 8 8 3 7 9 9 8 8 6 4 4 3 2 2 2 3 3 2 2 2 3 3 3 2 2 2 2 2 2 2 2 2 3 2 2 3 3 2 3
5 5 4 3 4 8 5 3 4 6 7 6 8 7 4 4 4 3 2 2 3 3 2 2 2 1 1 2 2 2 2 2 2 3 3 2 3 3 3 3 4 3 2 3
4 4 4 4 5 8 5 2 1 2 6 3 4 4 3 1 3 4 3 3 4 4 3 2 1 1 0 1 1 2 2 2 3 3 3 2 3 3 4 4 3 2 3 3
6 6 7 7 6 8 4 3 4 4 6 1 1 2 1 2 3 3 4 4 3 3 3 3 2 1 1 0 1 1 2 3 3 2 1 2 2 3 3 2 2 2 2 2
9 8 8 7 8 10 3 5 6 5 0 0 0 0 0 2 2 2 3 3 4 4 4 3 2 2 1 1 1 1 2 2 1 1 1 2 2 2 2 2 2 2 3 3
8 8 6 9 8 2 5 4 3 1 1 1 0 0 0 1 2 2 2 3 3 4 4 3 3 2 2 1 0 1 2 1 0 1 1 2 2 2 2 3 3 2 3 3
5 3 3 4 6 3 3 2 1 1 1 1 0 1 0 1 2 3 3 3 3 3 3 3 3 2 3 2 2 2 2 1 1 1 2 1 2 1 1 2 2 3 3 3
5 5 4 6 5 3 4 4 3 1 1 0 0 0 1 1 2 3 2 3 3 3 3 3 2 3 3 3 2 2 2 0 1 2 2 1 2 2 2 2 2 3 3 4
5 6 7 7 5 5 4 3 2 2 2 2 1 1 1 1 2 2 2 2 2 2 3 3 3 3 3 3 3 3 2 1 1 1 2 2 2 2 2 2 1 2 2 3
Wind_Direction
184 218 221 228 231 270 302 290 283 292 343 276 264 273 274 256 245 244 240 231 225 221 205 185 174 164 162 162 163 162 159 160 154 154 161 160 166 158 146 134 133 133 129 127
192 232 245 265 259 261 273 279 281 289 291 280 282 277 270 251 235 233 237 233 227 219 194 183 171 167 170 169 168 165 166 167 166 167 168 157 146 153 157 142 125 136 141 144
215 231 253 251 256 257 252 260 279 298 312 266 286 284 253 236 226 225 231 233 227 200 185 171 169 172 175 175 173 172 169 169 166 158 146 130 113 111 141 156 164 165 152 150
241 249 252 227 242 255 260 286 288 295 298 279 245 292 278 243 218 222 224 221 219 191 162 161 162 169 171 179 173 171 169 166 164 162 164 168 173 179 183 170 164 157 155 149
216 181 218 232 248 247 281 334 283 271 269 282 240 253 274 239 267 235 201 204 190 157 158 166 159 160 158 149 155 165 169 167 165 167 173 179 182 174 150 143 152 159 161 163
226 322 286 281 293 238 237 294 271 251 248 261 228 221 271 241 255 30 89 120 126 103 117 139 136 136 142 140 147 162 173 174 166 171 178 182 179 170 161 165 170 173 169 170
215 201 179 323 166 173 206 153 331 253 225 245 202 219 248 247 68 70 67 69 71 82 107 123 131 145 154 155 166 174 180 181 175 178 183 186 185 183 183 180 179 176 175 182
201 219 185 198 197 184 208 201 187 223 250 279 255 233 239 105 77 66 73 85 83 84 99 116 136 151 160 163 169 179 188 188 184 187 188 185 182 188 190 183 180 183 184 187
209 215 135 162 250 196 187 219 255 255 283 281 253 232 256 89 73 78 76 82 91 100 111 127 139 150 155 158 172 183 188 188 191 193 185 180 180 186 185 175 174 176 168 170
293 205 158 123 207 264 251 188 148 189 218 255 264 238 220 200 231 164 108 97 89 74 87 109 128 135 139 150 158 161 184 192 191 190 184 179 178 181 177 171 177 171 167 164
263 172 174 180 204 197 185 198 202 206 225 226 267 268 166 161 143 130 103 82 103 125 138 137 121 114 116 120 142 160 181 177 184 186 177 169 170 171 173 183 186 177 171 169
187 163 212 210 177 356 236 214 189 191 226 227 258 271 14 93 87 85 81 73 59 72 107 122 117 113 125 138 151 168 181 180 187 168 149 162 161 161 175 186 185 176 173 171
156 155 149 266 236 268 252 236 221 217 210 217 224 255 210 81 64 58 59 64 69 57 58 84 109 134 156 167 178 187 179 171 147 141 154 155 165 172 186 188 180 172 173 173
153 193 203 215 223 183 223 229 216 200 216 232 232 250 266 315 345 358 28 56 62 54 51 86 113 191 174 171 192 193 188 161 151 151 165 176 185 185 187 182 175 175 177 178
156 215 234 267 288 248 236 229 214 217 226 230 248 252 262 296 304 321 17 45 37 9 347 305 247 243 217 204 212 214 203 170 162 172 192 205 194 177 169 170 172 174 180 186
172 209 220 269 258 264 265 245 229 229 236 242 260 270 278 290 309 336 357 350 311 298 289 284 264 254 238 226 220 217 213 192 180 191 205 200 174 167 174 175 173 172 177 176
179 177 184 241 213 342 263 232 216 215 219 219 240 252 285 288 289 290 292 286 276 272 280 270 256 244 238 233 218 214 211 192 193 202 205 192 178 183 186 178 172 180 184 176
175 176 189 204 131 236 244 179 194 213 230 227 246 271 273 267 273 296 312 294 295 301 295 278 263 254 235 223 213 205 185 187 204 209 209 201 188 193 189 180 188 194 187 186
186 176 192 191 224 264 263 215 189 208 247 230 241 260 280 292 290 294 335 333 307 306 298 275 262 257 236 215 200 183 186 194 204 214 215 215 200 194 191 197 201 200 195 202
191 185 197 202 215 237 238 175 163 150 263 239 223 250 268 281 268 276 345 343 334 340 339 334 326 350 295 264 177 177 200 207 224 227 227 222 209 199 202 207 208 205 199 207
183 195 208 213 232 256 241 169 131 180 245 301 205 240 205 213 236 293 345 349 350 352 350 353 356 359 302 290 157 196 218 235 246 254 239 226 215 211 210 207 206 192 189 187
182 185 197 197 218 243 183 148 184 213 239 16 34 83 218 257 286 323 349 351 356 355 355 357 356 349 353 16 159 216 247 266 288 261 240 229 218 208 197 187 190 182 178 185
203 197 192 198 214 223 161 182 200 148 197 257 267 282 225 275 296 320 332 344 351 348 347 352 357 356 359 5 76 247 288 322 320 238 241 234 218 203 190 187 183 180 184 193
226 215 209 234 242 231 211 223 237 226 212 225 278 293 323 280 298 313 317 328 339 343 346 351 356 353 343 343 341 308 319 335 205 221 233 227 207 208 195 192 189 192 198 204
209 184 207 239 250 256 240 224 227 231 219 218 309 304 266 272 293 299 304 315 323 333 342 352 344 333 328 334 332 332 335 332 235 231 225 221 212 202 201 208 216 216 224 218
199 194 203 230 219 208 231 210 197 198 228 235 233 280 302 260 279 301 302 313 321 328 339 344 339 332 326 329 325 325 315 253 217 236 229 221 217 211 206 205 252 266 253 263